Time,TemperatureF,DewpointF,PressureIn,WindDirection,WindDirectionDegrees,WindSpeedMPH,WindSpeedGustMPH,Humidity,HourlyPrecipIn,Conditions,Clouds,dailyrainin,SoftwareType,DateUTC
2013-04-16 00:00:00,43.5,41.7,29.86,North,351,2.0,3.0,93,0.00,,,0.01,meteohub,2013-04-16 04:00:00,
2013-04-16 00:05:00,44.4,42.4,29.86,SSE,160,1.0,4.0,93,0.00,,,0.01,meteohub,2013-04-16 04:05:00,
2013-04-16 00:10:00,44.2,42.3,29.86,North,4,0.0,4.0,93,0.00,,,0.01,meteohub,2013-04-16 04:10:00,
2013-04-16 00:15:00,44.2,42.1,29.86,NE,55,1.0,4.0,92,0.00,,,0.01,meteohub,2013-04-16 04:15:00,
2013-04-16 00:20:00,44.4,42.4,29.86,NW,316,2.0,3.0,93,0.00,,,0.01,meteohub,2013-04-16 04:20:00,
2013-04-16 00:25:00,44.4,42.3,29.86,ENE,64,5.0,5.0,92,0.00,,,0.01,meteohub,2013-04-16 04:25:00,
2013-04-16 00:30:00,44.6,41.9,29.87,NW,311,1.0,7.0,90,0.00,,,0.01,meteohub,2013-04-16 04:30:00,
2013-04-16 00:35:00,44.4,41.7,29.88,North,1,5.0,7.0,90,0.00,,,0.01,meteohub,2013-04-16 04:35:00,
2013-04-16 00:40:00,44.2,40.6,29.88,WNW,302,1.0,11.0,87,0.00,,,0.01,meteohub,2013-04-16 04:40:00,
2013-04-16 00:45:00,44.1,40.1,29.88,WNW,283,1.0,11.0,86,0.00,,,0.01,meteohub,2013-04-16 04:45:00,
2013-04-16 00:50:00,43.9,39.7,29.88,NNW,337,4.0,11.0,85,0.00,,,0.01,meteohub,2013-04-16 04:50:00,
2013-04-16 00:55:00,43.7,39.2,29.88,WSW,257,0.0,6.0,84,0.00,,,0.01,meteohub,2013-04-16 04:55:00,
2013-04-16 01:00:00,43.5,38.5,29.88,West,259,1.0,4.0,82,0.00,,,0.01,meteohub,2013-04-16 05:00:00,
2013-04-16 01:05:00,43.3,38.3,29.88,NW,309,0.0,4.0,82,0.00,,,0.01,meteohub,2013-04-16 05:05:00,
2013-04-16 01:10:00,43.0,37.2,29.89,West,262,3.0,4.0,80,0.00,,,0.01,meteohub,2013-04-16 05:10:00,
2013-04-16 01:15:00,42.6,36.3,29.89,SW,231,3.0,6.0,78,0.00,,,0.01,meteohub,2013-04-16 05:15:00,
2013-04-16 01:20:00,42.6,36.3,29.89,NW,325,1.0,6.0,78,0.00,,,0.01,meteohub,2013-04-16 05:20:00,
2013-04-16 01:25:00,42.4,36.1,29.90,WSW,258,1.0,6.0,78,0.00,,,0.01,meteohub,2013-04-16 05:25:00,
2013-04-16 01:30:00,42.1,35.8,29.90,WNW,294,2.0,6.0,78,0.00,,,0.01,meteohub,2013-04-16 05:30:00,
2013-04-16 01:35:00,41.7,35.8,29.90,SSW,199,0.0,6.0,79,0.00,,,0.01,meteohub,2013-04-16 05:35:00,
2013-04-16 01:40:00,41.5,35.2,29.90,SW,227,1.0,5.0,78,0.00,,,0.01,meteohub,2013-04-16 05:40:00,
2013-04-16 01:45:00,41.4,35.1,29.90,SW,234,4.0,7.0,78,0.00,,,0.01,meteohub,2013-04-16 05:45:00,
2013-04-16 01:51:00,41.4,35.1,29.90,SW,236,1.0,7.0,78,0.00,,,0.01,meteohub,2013-04-16 05:51:00,
2013-04-16 01:56:00,41.2,35.2,29.91,South,188,2.0,7.0,79,0.00,,,0.01,meteohub,2013-04-16 05:56:00,
2013-04-16 02:01:00,41.0,34.7,29.90,North,349,0.0,6.0,78,0.00,,,0.01,meteohub,2013-04-16 06:01:00,
2013-04-16 02:06:00,40.8,34.2,29.91,SW,221,1.0,5.0,77,0.00,,,0.01,meteohub,2013-04-16 06:06:00,
2013-04-16 02:11:00,40.8,34.2,29.91,NE,34,0.0,5.0,77,0.00,,,0.01,meteohub,2013-04-16 06:11:00,
2013-04-16 02:16:00,40.6,33.3,29.89,WNW,294,3.0,5.0,75,0.00,,,0.01,meteohub,2013-04-16 06:16:00,
2013-04-16 02:21:00,40.6,33.6,29.90,SW,218,1.0,5.0,76,0.00,,,0.01,meteohub,2013-04-16 06:21:00,
2013-04-16 02:26:00,40.5,33.4,29.90,SW,216,2.0,5.0,76,0.00,,,0.01,meteohub,2013-04-16 06:26:00,
2013-04-16 02:31:00,40.3,33.6,29.88,SW,219,0.0,5.0,77,0.00,,,0.01,meteohub,2013-04-16 06:31:00,
2013-04-16 02:36:00,40.3,33.6,29.89,SW,216,1.0,3.0,77,0.00,,,0.01,meteohub,2013-04-16 06:36:00,
2013-04-16 02:41:00,40.1,33.4,29.89,WSW,252,2.0,3.0,77,0.00,,,0.01,meteohub,2013-04-16 06:41:00,
2013-04-16 02:46:00,39.9,32.9,29.90,SSE,155,0.0,4.0,76,0.00,,,0.01,meteohub,2013-04-16 06:46:00,
2013-04-16 02:51:00,39.9,33.3,29.90,SW,217,0.0,4.0,77,0.00,,,0.01,meteohub,2013-04-16 06:51:00,
2013-04-16 02:57:00,39.7,33.8,29.90,SSE,167,1.0,4.0,79,0.00,,,0.01,meteohub,2013-04-16 06:57:00,
2013-04-16 03:02:00,39.6,33.3,29.90,SW,219,1.0,4.0,78,0.00,,,0.01,meteohub,2013-04-16 07:02:00,
2013-04-16 03:07:00,39.6,32.9,29.90,SSE,161,0.0,4.0,77,0.00,,,0.01,meteohub,2013-04-16 07:07:00,
2013-04-16 03:12:00,39.4,33.1,29.90,South,189,0.0,4.0,78,0.00,,,0.01,meteohub,2013-04-16 07:12:00,
2013-04-16 03:17:00,39.2,32.9,29.90,South,171,0.0,4.0,78,0.00,,,0.01,meteohub,2013-04-16 07:17:00,
2013-04-16 03:22:00,39.2,33.3,29.90,SW,221,0.0,5.0,79,0.00,,,0.01,meteohub,2013-04-16 07:22:00,
2013-04-16 03:27:00,39.0,32.7,29.90,NNW,337,0.0,5.0,78,0.00,,,0.01,meteohub,2013-04-16 07:27:00,
2013-04-16 03:32:00,38.7,32.4,29.90,East,85,1.0,5.0,78,0.00,,,0.01,meteohub,2013-04-16 07:32:00,
2013-04-16 03:37:00,38.7,31.8,29.89,WSW,239,0.0,4.0,76,0.00,,,0.01,meteohub,2013-04-16 07:37:00,
2013-04-16 03:42:00,38.7,31.8,29.90,SSW,212,1.0,5.0,76,0.00,,,0.01,meteohub,2013-04-16 07:42:00,
2013-04-16 03:47:00,38.8,32.2,29.89,SSW,210,1.0,5.0,77,0.00,,,0.01,meteohub,2013-04-16 07:47:00,
2013-04-16 03:52:00,38.5,32.2,29.89,South,189,3.0,5.0,78,0.00,,,0.01,meteohub,2013-04-16 07:52:00,
2013-04-16 03:57:00,38.1,32.5,29.90,ENE,74,0.0,5.0,80,0.00,,,0.01,meteohub,2013-04-16 07:57:00,
2013-04-16 04:02:00,37.8,32.2,29.90,SSE,158,0.0,3.0,80,0.00,,,0.01,meteohub,2013-04-16 08:02:00,
2013-04-16 04:07:00,37.6,32.0,29.91,East,93,1.0,3.0,80,0.00,,,0.01,meteohub,2013-04-16 08:07:00,
2013-04-16 04:12:00,37.6,31.6,29.91,SSE,158,0.0,3.0,79,0.00,,,0.01,meteohub,2013-04-16 08:12:00,
2013-04-16 04:17:00,37.4,31.8,29.91,SE,140,0.0,3.0,80,0.00,,,0.01,meteohub,2013-04-16 08:17:00,
2013-04-16 04:22:00,37.0,31.8,29.91,SSW,207,0.0,3.0,81,0.00,,,0.01,meteohub,2013-04-16 08:22:00,
2013-04-16 04:27:00,36.9,31.6,29.91,SSW,206,1.0,3.0,81,0.00,,,0.01,meteohub,2013-04-16 08:27:00,
2013-04-16 04:32:00,36.7,31.6,29.91,SSW,203,2.0,3.0,82,0.00,,,0.01,meteohub,2013-04-16 08:32:00,
2013-04-16 04:37:00,36.7,31.5,29.92,South,183,0.0,3.0,81,0.00,,,0.01,meteohub,2013-04-16 08:37:00,
2013-04-16 04:42:00,36.3,31.6,29.92,South,189,1.0,3.0,83,0.00,,,0.01,meteohub,2013-04-16 08:42:00,
2013-04-16 04:47:00,36.0,31.6,29.92,SE,145,0.0,3.0,84,0.00,,,0.01,meteohub,2013-04-16 08:47:00,
2013-04-16 04:52:00,35.4,31.3,29.92,ESE,107,1.0,2.0,85,0.00,,,0.01,meteohub,2013-04-16 08:52:00,
2013-04-16 04:57:00,35.1,31.3,29.92,SSE,161,0.0,2.0,86,0.00,,,0.01,meteohub,2013-04-16 08:57:00,
2013-04-16 05:02:00,34.5,31.1,29.92,SSE,160,0.0,2.0,87,0.00,,,0.01,meteohub,2013-04-16 09:02:00,
2013-04-16 05:07:00,34.3,31.1,29.92,SSE,160,0.0,1.0,88,0.00,,,0.01,meteohub,2013-04-16 09:07:00,
2013-04-16 05:12:00,34.2,31.3,29.92,SSE,157,0.0,1.0,89,0.00,,,0.01,meteohub,2013-04-16 09:12:00,
2013-04-16 05:17:00,34.0,31.1,29.93,East,89,0.0,1.0,89,0.00,,,0.01,meteohub,2013-04-16 09:17:00,
2013-04-16 05:22:00,33.6,30.7,29.93,East,100,0.0,1.0,89,0.00,,,0.01,meteohub,2013-04-16 09:22:00,
2013-04-16 05:27:00,33.4,30.6,29.93,ESE,117,0.0,2.0,89,0.00,,,0.01,meteohub,2013-04-16 09:27:00,
2013-04-16 05:32:00,33.4,30.6,29.94,SE,124,0.0,2.0,89,0.00,,,0.01,meteohub,2013-04-16 09:32:00,
2013-04-16 05:37:00,33.4,30.6,29.93,ESE,123,0.0,2.0,89,0.00,,,0.01,meteohub,2013-04-16 09:37:00,
2013-04-16 05:42:00,33.3,30.4,29.93,SE,124,0.0,0.0,89,0.00,,,0.01,meteohub,2013-04-16 09:42:00,
2013-04-16 05:47:00,33.1,30.2,29.93,SSE,150,1.0,0.0,89,0.00,,,0.01,meteohub,2013-04-16 09:47:00,
2013-04-16 05:52:00,33.1,30.2,29.93,SE,141,0.0,1.0,89,0.00,,,0.01,meteohub,2013-04-16 09:52:00,
2013-04-16 05:57:00,33.1,30.2,29.92,East,96,0.0,1.0,89,0.00,,,0.01,meteohub,2013-04-16 09:57:00,
2013-04-16 06:02:00,32.9,30.0,29.92,SSE,147,0.0,2.0,89,0.00,,,0.01,meteohub,2013-04-16 10:02:00,
2013-04-16 06:07:00,32.7,30.2,29.92,SSE,150,0.0,2.0,90,0.00,,,0.01,meteohub,2013-04-16 10:07:00,
2013-04-16 06:12:00,32.7,30.2,29.92,SSE,161,0.0,2.0,90,0.00,,,0.01,meteohub,2013-04-16 10:12:00,
2013-04-16 06:17:00,32.7,30.2,29.94,ESE,117,0.0,2.0,90,0.00,,,0.01,meteohub,2013-04-16 10:17:00,
2013-04-16 06:22:00,32.5,30.0,29.94,SSE,164,1.0,2.0,90,0.00,,,0.01,meteohub,2013-04-16 10:22:00,
2013-04-16 06:27:00,32.5,30.0,29.93,ENE,67,0.0,2.0,90,0.00,,,0.01,meteohub,2013-04-16 10:27:00,
2013-04-16 06:32:00,32.5,30.0,29.93,WNW,290,0.0,2.0,90,0.00,,,0.01,meteohub,2013-04-16 10:32:00,
2013-04-16 06:37:00,32.5,30.0,29.93,South,189,1.0,2.0,90,0.00,,,0.01,meteohub,2013-04-16 10:37:00,
2013-04-16 06:42:00,32.7,30.2,29.93,SW,214,0.0,3.0,90,0.00,,,0.01,meteohub,2013-04-16 10:42:00,
2013-04-16 06:47:00,32.7,30.2,29.94,SSE,167,0.0,3.0,90,0.00,,,0.01,meteohub,2013-04-16 10:47:00,
2013-04-16 06:52:00,32.7,30.2,29.94,SSE,151,1.0,3.0,90,0.00,,,0.01,meteohub,2013-04-16 10:52:00,
2013-04-16 06:57:00,32.5,30.0,29.95,SW,216,0.0,2.0,90,0.00,,,0.01,meteohub,2013-04-16 10:57:00,
2013-04-16 07:01:00,32.5,30.0,29.95,East,88,0.0,2.0,90,0.00,,,0.01,meteohub,2013-04-16 11:01:00,
2013-04-16 07:07:00,32.7,30.2,29.96,SE,144,0.0,2.0,90,0.00,,,0.01,meteohub,2013-04-16 11:07:00,
2013-04-16 07:12:00,32.5,30.0,29.95,SE,137,0.0,2.0,90,0.00,,,0.01,meteohub,2013-04-16 11:12:00,
2013-04-16 07:17:00,32.7,30.2,29.94,SE,145,0.0,2.0,90,0.00,,,0.01,meteohub,2013-04-16 11:17:00,
2013-04-16 07:22:00,32.7,30.2,29.94,South,171,0.0,2.0,90,0.00,,,0.01,meteohub,2013-04-16 11:22:00,
2013-04-16 07:27:00,32.5,30.0,29.94,ESE,119,1.0,2.0,90,0.00,,,0.01,meteohub,2013-04-16 11:27:00,
2013-04-16 07:32:00,32.5,30.0,29.94,ESE,122,1.0,2.0,90,0.00,,,0.01,meteohub,2013-04-16 11:32:00,
2013-04-16 07:37:00,32.7,30.2,29.94,SSE,147,0.0,2.0,90,0.00,,,0.01,meteohub,2013-04-16 11:37:00,
2013-04-16 07:42:00,33.1,30.4,29.95,SW,220,0.0,2.0,90,0.00,,,0.01,meteohub,2013-04-16 11:42:00,
2013-04-16 07:47:00,33.8,30.9,29.96,North,357,0.0,2.0,89,0.00,,,0.01,meteohub,2013-04-16 11:47:00,
2013-04-16 07:52:00,34.7,31.3,29.96,ESE,109,0.0,1.0,87,0.00,,,0.01,meteohub,2013-04-16 11:52:00,
2013-04-16 07:57:00,35.6,31.5,29.95,ENE,77,1.0,1.0,85,0.00,,,0.01,meteohub,2013-04-16 11:57:00,
2013-04-16 08:02:00,36.1,31.5,29.95,South,174,2.0,2.0,83,0.00,,,0.01,meteohub,2013-04-16 12:02:00,
2013-04-16 08:07:00,36.7,32.0,29.96,South,178,0.0,4.0,83,0.00,,,0.01,meteohub,2013-04-16 12:07:00,
2013-04-16 08:12:00,37.2,32.2,29.96,ESE,117,4.0,4.0,82,0.00,,,0.01,meteohub,2013-04-16 12:12:00,
2013-04-16 08:17:00,37.9,32.7,29.95,ESE,104,0.0,4.0,81,0.00,,,0.01,meteohub,2013-04-16 12:17:00,
2013-04-16 08:22:00,38.3,32.4,29.96,ENE,68,0.0,4.0,79,0.00,,,0.01,meteohub,2013-04-16 12:22:00,
2013-04-16 08:26:00,38.5,31.8,29.97,NW,304,3.0,4.0,77,0.00,,,0.01,meteohub,2013-04-16 12:26:00,
2013-04-16 08:32:00,38.5,31.6,29.98,SSW,192,2.0,4.0,76,0.00,,,0.01,meteohub,2013-04-16 12:32:00,
2013-04-16 08:37:00,38.8,31.6,29.98,WNW,295,3.0,6.0,75,0.00,,,0.01,meteohub,2013-04-16 12:37:00,
2013-04-16 08:42:00,39.0,32.4,29.98,SSW,205,1.0,6.0,77,0.00,,,0.01,meteohub,2013-04-16 12:42:00,
2013-04-16 08:47:00,39.4,32.2,29.97,South,181,0.0,6.0,75,0.00,,,0.01,meteohub,2013-04-16 12:47:00,
2013-04-16 08:52:00,39.6,32.0,29.97,NW,312,1.0,5.0,74,0.00,,,0.01,meteohub,2013-04-16 12:52:00,
2013-04-16 08:57:00,39.6,32.0,29.98,WSW,248,3.0,4.0,74,0.00,,,0.01,meteohub,2013-04-16 12:57:00,
2013-04-16 09:02:00,39.6,32.0,29.99,East,99,1.0,5.0,74,0.00,,,0.01,meteohub,2013-04-16 13:02:00,
2013-04-16 09:07:00,39.7,32.5,29.99,West,266,0.0,5.0,75,0.00,,,0.01,meteohub,2013-04-16 13:07:00,
2013-04-16 09:12:00,40.3,32.7,29.98,NE,41,2.0,6.0,74,0.00,,,0.01,meteohub,2013-04-16 13:12:00,
2013-04-16 09:17:00,40.3,32.4,29.98,NE,50,1.0,6.0,73,0.00,,,0.01,meteohub,2013-04-16 13:17:00,
2013-04-16 09:22:00,40.5,31.8,29.99,South,189,2.0,6.0,71,0.00,,,0.01,meteohub,2013-04-16 13:22:00,
2013-04-16 09:27:00,40.5,32.2,29.99,South,182,3.0,7.0,72,0.00,,,0.01,meteohub,2013-04-16 13:27:00,
2013-04-16 09:32:00,40.6,32.4,30.00,SSW,201,1.0,7.0,72,0.00,,,0.01,meteohub,2013-04-16 13:32:00,
2013-04-16 09:37:00,40.6,31.6,29.99,ESE,110,6.0,8.0,70,0.00,,,0.01,meteohub,2013-04-16 13:37:00,
2013-04-16 09:42:00,40.6,32.0,29.99,West,272,4.0,9.0,71,0.00,,,0.01,meteohub,2013-04-16 13:42:00,
2013-04-16 09:47:00,40.6,31.6,30.01,NW,323,2.0,9.0,70,0.00,,,0.01,meteohub,2013-04-16 13:47:00,
2013-04-16 09:52:00,40.8,31.5,30.01,SW,214,5.0,9.0,69,0.00,,,0.01,meteohub,2013-04-16 13:52:00,
2013-04-16 09:57:00,41.0,31.6,30.01,WSW,241,4.0,11.0,69,0.00,,,0.01,meteohub,2013-04-16 13:57:00,
2013-04-16 10:02:00,41.2,31.8,30.01,SSW,192,3.0,11.0,69,0.00,,,0.01,meteohub,2013-04-16 14:02:00,
2013-04-16 10:07:00,41.5,32.2,30.01,South,181,1.0,11.0,69,0.00,,,0.01,meteohub,2013-04-16 14:07:00,
2013-04-16 10:12:00,41.9,31.5,30.02,SW,222,4.0,10.0,66,0.00,,,0.01,meteohub,2013-04-16 14:12:00,
2013-04-16 10:17:00,41.5,31.8,30.02,SW,214,1.0,15.0,68,0.00,,,0.01,meteohub,2013-04-16 14:17:00,
2013-04-16 10:21:00,41.5,31.5,30.03,WNW,284,4.0,15.0,67,0.00,,,0.01,meteohub,2013-04-16 14:21:00,
2013-04-16 10:27:00,41.5,31.5,30.03,North,350,1.0,15.0,67,0.00,,,0.01,meteohub,2013-04-16 14:27:00,
2013-04-16 10:32:00,41.7,31.6,30.03,SSW,211,5.0,11.0,67,0.00,,,0.01,meteohub,2013-04-16 14:32:00,
2013-04-16 10:37:00,41.7,30.7,30.04,SW,226,2.0,11.0,65,0.00,,,0.01,meteohub,2013-04-16 14:37:00,
2013-04-16 10:42:00,42.4,31.5,30.04,NW,316,4.0,9.0,65,0.00,,,0.01,meteohub,2013-04-16 14:42:00,
2013-04-16 10:47:00,42.4,31.5,30.04,West,265,6.0,7.0,65,0.00,,,0.01,meteohub,2013-04-16 14:47:00,
2013-04-16 10:52:00,42.6,31.6,30.04,NW,316,5.0,9.0,65,0.00,,,0.01,meteohub,2013-04-16 14:52:00,
2013-04-16 10:57:00,42.6,30.2,30.05,SSW,200,9.0,9.0,61,0.00,,,0.01,meteohub,2013-04-16 14:57:00,
2013-04-16 11:02:00,42.4,30.4,30.04,WNW,293,5.0,11.0,62,0.00,,,0.01,meteohub,2013-04-16 15:02:00,
2013-04-16 11:07:00,42.4,30.7,30.04,WSW,257,6.0,16.0,63,0.00,,,0.01,meteohub,2013-04-16 15:07:00,
2013-04-16 11:12:00,42.1,30.4,30.04,West,259,2.0,16.0,63,0.00,,,0.01,meteohub,2013-04-16 15:12:00,
2013-04-16 11:17:00,42.1,30.4,30.05,South,179,4.0,15.0,63,0.00,,,0.01,meteohub,2013-04-16 15:17:00,
2013-04-16 11:22:00,42.6,31.3,30.05,South,190,2.0,15.0,64,0.00,,,0.01,meteohub,2013-04-16 15:22:00,
2013-04-16 11:27:00,42.6,31.3,30.05,SSE,150,1.0,10.0,64,0.00,,,0.01,meteohub,2013-04-16 15:27:00,
2013-04-16 11:32:00,42.6,30.6,30.04,WSW,257,4.0,9.0,62,0.00,,,0.01,meteohub,2013-04-16 15:32:00,
2013-04-16 11:37:00,42.3,30.6,30.04,NNE,32,2.0,14.0,63,0.00,,,0.01,meteohub,2013-04-16 15:37:00,
2013-04-16 11:42:00,42.1,31.1,30.05,NNW,336,2.0,14.0,65,0.00,,,0.01,meteohub,2013-04-16 15:42:00,
2013-04-16 11:47:00,42.4,31.1,30.05,WSW,247,1.0,14.0,64,0.00,,,0.01,meteohub,2013-04-16 15:47:00,
2013-04-16 11:52:00,42.3,30.2,30.05,WNW,288,13.0,13.0,62,0.00,,,0.01,meteohub,2013-04-16 15:52:00,
2013-04-16 11:57:00,42.3,30.6,30.05,South,169,1.0,13.0,63,0.00,,,0.01,meteohub,2013-04-16 15:57:00,
2013-04-16 12:02:00,42.8,31.5,30.06,SSW,203,2.0,13.0,64,0.00,,,0.01,meteohub,2013-04-16 16:02:00,
2013-04-16 12:07:00,42.4,30.4,30.06,WSW,245,6.0,13.0,62,0.00,,,0.01,meteohub,2013-04-16 16:07:00,
2013-04-16 12:12:00,42.4,30.4,30.07,NW,312,6.0,10.0,62,0.00,,,0.01,meteohub,2013-04-16 16:12:00,
2013-04-16 12:17:00,42.4,30.7,30.07,West,268,3.0,11.0,63,0.00,,,0.01,meteohub,2013-04-16 16:17:00,
2013-04-16 12:22:00,42.3,30.6,30.07,WNW,285,7.0,13.0,63,0.00,,,0.01,meteohub,2013-04-16 16:22:00,
2013-04-16 12:27:00,42.3,31.3,30.07,SW,231,5.0,16.0,65,0.00,,,0.01,meteohub,2013-04-16 16:27:00,
2013-04-16 12:32:00,42.1,30.7,30.07,ENE,78,1.0,16.0,64,0.00,,,0.01,meteohub,2013-04-16 16:32:00,
2013-04-16 12:37:00,42.3,30.9,30.07,SSW,193,6.0,12.0,64,0.00,,,0.01,meteohub,2013-04-16 16:37:00,
2013-04-16 12:42:00,42.3,31.6,30.08,WNW,295,4.0,11.0,66,0.00,,,0.01,meteohub,2013-04-16 16:42:00,
2013-04-16 12:47:00,42.1,31.1,30.08,WSW,252,4.0,11.0,65,0.00,,,0.01,meteohub,2013-04-16 16:47:00,
2013-04-16 12:52:00,42.1,30.7,30.08,West,263,4.0,11.0,64,0.00,,,0.01,meteohub,2013-04-16 16:52:00,
2013-04-16 12:57:00,42.4,31.1,30.08,SSW,209,9.0,9.0,64,0.00,,,0.01,meteohub,2013-04-16 16:57:00,
2013-04-16 13:02:00,42.6,32.0,30.09,NNE,13,6.0,10.0,66,0.00,,,0.01,meteohub,2013-04-16 17:02:00,
2013-04-16 13:07:00,42.6,31.3,30.09,WSW,253,5.0,11.0,64,0.00,,,0.01,meteohub,2013-04-16 17:07:00,
2013-04-16 13:12:00,42.4,30.7,30.09,West,273,2.0,12.0,63,0.00,,,0.01,meteohub,2013-04-16 17:12:00,
2013-04-16 13:17:00,42.6,30.9,30.09,West,273,4.0,12.0,63,0.00,,,0.01,meteohub,2013-04-16 17:17:00,
2013-04-16 13:22:00,42.6,30.9,30.09,West,268,4.0,12.0,63,0.00,,,0.01,meteohub,2013-04-16 17:22:00,
2013-04-16 13:27:00,42.8,31.5,30.10,SW,233,10.0,12.0,64,0.00,,,0.01,meteohub,2013-04-16 17:27:00,
2013-04-16 13:32:00,43.0,30.9,30.10,West,261,12.0,12.0,62,0.00,,,0.01,meteohub,2013-04-16 17:32:00,
2013-04-16 13:37:00,43.0,30.9,30.10,SW,219,2.0,14.0,62,0.00,,,0.01,meteohub,2013-04-16 17:37:00,
2013-04-16 13:42:00,42.8,30.7,30.10,NNW,327,6.0,14.0,62,0.00,,,0.01,meteohub,2013-04-16 17:42:00,
2013-04-16 13:47:00,43.2,31.8,30.10,SW,221,3.0,14.0,64,0.00,,,0.01,meteohub,2013-04-16 17:47:00,
2013-04-16 13:52:00,43.9,32.5,30.10,WSW,258,1.0,10.0,64,0.00,,,0.01,meteohub,2013-04-16 17:52:00,
2013-04-16 13:57:00,44.1,31.5,30.11,NW,316,11.0,11.0,61,0.00,,,0.01,meteohub,2013-04-16 17:57:00,
2013-04-16 14:02:00,43.9,31.6,30.11,SW,231,4.0,11.0,62,0.00,,,0.01,meteohub,2013-04-16 18:02:00,
2013-04-16 14:07:00,43.9,31.3,30.10,WNW,285,4.0,11.0,61,0.00,,,0.01,meteohub,2013-04-16 18:07:00,
2013-04-16 14:12:00,44.1,31.8,30.11,WNW,293,3.0,11.0,62,0.00,,,0.01,meteohub,2013-04-16 18:12:00,
2013-04-16 14:17:00,44.2,31.3,30.10,SW,226,6.0,9.0,60,0.00,,,0.01,meteohub,2013-04-16 18:17:00,
2013-04-16 14:22:00,44.4,31.5,30.11,ENE,58,2.0,9.0,60,0.00,,,0.01,meteohub,2013-04-16 18:22:00,
2013-04-16 14:27:00,44.8,31.8,30.11,SSW,211,7.0,10.0,60,0.00,,,0.01,meteohub,2013-04-16 18:27:00,
2013-04-16 14:32:00,44.4,31.5,30.12,South,183,3.0,11.0,60,0.00,,,0.01,meteohub,2013-04-16 18:32:00,
2013-04-16 14:37:00,44.2,31.3,30.12,West,264,4.0,12.0,60,0.00,,,0.01,meteohub,2013-04-16 18:37:00,
2013-04-16 14:42:00,44.1,30.7,30.12,NNW,337,8.0,12.0,59,0.00,,,0.01,meteohub,2013-04-16 18:42:00,
2013-04-16 14:47:00,44.2,31.6,30.12,West,277,5.0,11.0,61,0.00,,,0.01,meteohub,2013-04-16 18:47:00,
2013-04-16 14:52:00,44.1,31.1,30.12,SSW,192,2.0,12.0,60,0.00,,,0.01,meteohub,2013-04-16 18:52:00,
2013-04-16 14:57:00,44.1,31.1,30.13,NNW,330,6.0,12.0,60,0.00,,,0.01,meteohub,2013-04-16 18:57:00,
2013-04-16 15:02:00,44.2,31.6,30.13,SSW,197,2.0,12.0,61,0.00,,,0.01,meteohub,2013-04-16 19:02:00,
2013-04-16 15:07:00,45.0,32.4,30.13,North,2,2.0,10.0,61,0.00,,,0.01,meteohub,2013-04-16 19:07:00,
2013-04-16 15:12:00,45.9,32.4,30.13,NW,314,6.0,9.0,59,0.00,,,0.01,meteohub,2013-04-16 19:12:00,
2013-04-16 15:17:00,45.3,31.5,30.13,South,189,5.0,13.0,58,0.00,,,0.01,meteohub,2013-04-16 19:17:00,
2013-04-16 15:22:00,45.5,32.4,30.14,WNW,292,2.0,13.0,60,0.00,,,0.01,meteohub,2013-04-16 19:22:00,
2013-04-16 15:27:00,45.7,31.8,30.14,WNW,282,5.0,13.0,58,0.00,,,0.01,meteohub,2013-04-16 19:27:00,
2013-04-16 15:32:00,45.7,32.2,30.14,South,190,4.0,11.0,59,0.00,,,0.01,meteohub,2013-04-16 19:32:00,
2013-04-16 15:37:00,45.7,32.2,30.14,SW,220,4.0,9.0,59,0.00,,,0.01,meteohub,2013-04-16 19:37:00,
2013-04-16 15:42:00,45.7,32.2,30.14,South,189,8.0,9.0,59,0.00,,,0.01,meteohub,2013-04-16 19:42:00,
2013-04-16 15:47:00,45.5,31.6,30.14,West,259,0.0,10.0,58,0.00,,,0.01,meteohub,2013-04-16 19:47:00,
2013-04-16 15:52:00,45.9,32.0,30.15,South,188,4.0,10.0,58,0.00,,,0.01,meteohub,2013-04-16 19:52:00,
2013-04-16 15:57:00,45.9,32.0,30.14,North,358,4.0,11.0,58,0.00,,,0.01,meteohub,2013-04-16 19:57:00,
2013-04-16 16:02:00,45.9,32.0,30.14,West,278,3.0,11.0,58,0.00,,,0.01,meteohub,2013-04-16 20:02:00,
2013-04-16 16:07:00,46.2,32.2,30.15,NW,309,6.0,10.0,58,0.00,,,0.01,meteohub,2013-04-16 20:07:00,
2013-04-16 16:12:00,46.0,32.0,30.15,SSE,167,3.0,10.0,58,0.00,,,0.01,meteohub,2013-04-16 20:12:00,
2013-04-16 16:18:00,46.0,32.0,30.15,WSW,242,2.0,9.0,58,0.00,,,0.01,meteohub,2013-04-16 20:18:00,
2013-04-16 16:23:00,46.6,32.2,30.15,West,278,6.0,11.0,57,0.00,,,0.01,meteohub,2013-04-16 20:23:00,
2013-04-16 16:28:00,46.6,31.6,30.15,SW,221,2.0,11.0,56,0.00,,,0.01,meteohub,2013-04-16 20:28:00,
2013-04-16 16:33:00,46.4,31.6,30.15,SW,215,7.0,12.0,56,0.00,,,0.01,meteohub,2013-04-16 20:33:00,
2013-04-16 16:38:00,46.8,31.8,30.15,WSW,251,6.0,12.0,56,0.00,,,0.01,meteohub,2013-04-16 20:38:00,
2013-04-16 16:43:00,46.8,31.8,30.15,WNW,296,9.0,9.0,56,0.00,,,0.01,meteohub,2013-04-16 20:43:00,
2013-04-16 16:48:00,46.8,31.8,30.15,West,268,5.0,9.0,56,0.00,,,0.01,meteohub,2013-04-16 20:48:00,
2013-04-16 16:53:00,46.8,31.5,30.15,SW,215,2.0,9.0,55,0.00,,,0.01,meteohub,2013-04-16 20:53:00,
2013-04-16 16:58:00,46.9,32.5,30.16,WNW,294,6.0,13.0,57,0.00,,,0.01,meteohub,2013-04-16 20:58:00,
2013-04-16 17:03:00,46.4,32.0,30.16,West,262,3.0,13.0,57,0.00,,,0.01,meteohub,2013-04-16 21:03:00,
2013-04-16 17:08:00,46.8,32.7,30.16,North,351,0.0,11.0,58,0.00,,,0.01,meteohub,2013-04-16 21:08:00,
2013-04-16 17:13:00,46.9,31.6,30.16,North,351,2.0,11.0,55,0.00,,,0.01,meteohub,2013-04-16 21:13:00,
2013-04-16 17:18:00,46.8,31.5,30.17,WNW,285,3.0,8.0,55,0.00,,,0.01,meteohub,2013-04-16 21:18:00,
2013-04-16 17:23:00,46.8,31.8,30.17,West,259,3.0,10.0,56,0.00,,,0.01,meteohub,2013-04-16 21:23:00,
2013-04-16 17:28:00,46.8,30.9,30.17,WSW,250,1.0,10.0,54,0.00,,,0.01,meteohub,2013-04-16 21:28:00,
2013-04-16 17:33:00,46.8,31.8,30.17,WSW,243,2.0,11.0,56,0.00,,,0.01,meteohub,2013-04-16 21:33:00,
2013-04-16 17:38:00,46.9,31.1,30.17,SW,234,2.0,11.0,54,0.00,,,0.01,meteohub,2013-04-16 21:38:00,
2013-04-16 17:43:00,47.3,31.5,30.18,WSW,255,6.0,12.0,54,0.00,,,0.01,meteohub,2013-04-16 21:43:00,
2013-04-16 17:48:00,47.3,31.5,30.18,SW,230,3.0,12.0,54,0.00,,,0.01,meteohub,2013-04-16 21:48:00,
2013-04-16 17:53:00,47.3,32.4,30.18,SW,233,2.0,10.0,56,0.00,,,0.01,meteohub,2013-04-16 21:53:00,
2013-04-16 17:58:00,47.7,31.3,30.19,NNW,330,5.0,10.0,53,0.00,,,0.01,meteohub,2013-04-16 21:58:00,
2013-04-16 18:03:00,47.5,30.7,30.19,WSW,241,4.0,13.0,52,0.00,,,0.01,meteohub,2013-04-16 22:03:00,
2013-04-16 18:08:00,47.1,30.4,30.19,NW,305,3.0,13.0,52,0.00,,,0.01,meteohub,2013-04-16 22:08:00,
2013-04-16 18:13:00,47.3,31.1,30.19,West,262,2.0,13.0,53,0.00,,,0.01,meteohub,2013-04-16 22:13:00,
2013-04-16 18:18:00,47.5,30.7,30.19,WSW,250,3.0,12.0,52,0.00,,,0.01,meteohub,2013-04-16 22:18:00,
2013-04-16 18:23:00,47.1,31.3,30.19,WSW,247,4.0,10.0,54,0.00,,,0.01,meteohub,2013-04-16 22:23:00,
2013-04-16 18:28:00,46.9,31.1,30.19,WNW,285,4.0,10.0,54,0.00,,,0.01,meteohub,2013-04-16 22:28:00,
2013-04-16 18:33:00,46.8,30.9,30.19,WSW,257,2.0,10.0,54,0.00,,,0.01,meteohub,2013-04-16 22:33:00,
2013-04-16 18:38:00,46.8,30.9,30.20,West,268,6.0,10.0,54,0.00,,,0.01,meteohub,2013-04-16 22:38:00,
2013-04-16 18:43:00,46.4,31.1,30.20,WNW,301,2.0,10.0,55,0.00,,,0.01,meteohub,2013-04-16 22:43:00,
2013-04-16 18:48:00,46.2,30.9,30.20,West,279,3.0,10.0,55,0.00,,,0.01,meteohub,2013-04-16 22:48:00,
2013-04-16 18:53:00,46.0,31.3,30.21,WSW,248,3.0,10.0,56,0.00,,,0.01,meteohub,2013-04-16 22:53:00,
2013-04-16 18:58:00,45.9,31.1,30.21,West,273,2.0,8.0,56,0.00,,,0.01,meteohub,2013-04-16 22:58:00,
2013-04-16 19:03:00,45.7,31.3,30.21,WNW,290,2.0,8.0,57,0.00,,,0.01,meteohub,2013-04-16 23:03:00,
2013-04-16 19:08:00,45.3,30.9,30.22,West,279,3.0,9.0,57,0.00,,,0.01,meteohub,2013-04-16 23:08:00,
2013-04-16 19:13:00,45.1,31.3,30.22,West,267,0.0,9.0,58,0.00,,,0.01,meteohub,2013-04-16 23:13:00,
2013-04-16 19:18:00,45.0,31.1,30.22,NNE,23,3.0,9.0,58,0.00,,,0.01,meteohub,2013-04-16 23:18:00,
2013-04-16 19:23:00,45.0,31.5,30.22,WNW,293,1.0,8.0,59,0.00,,,0.01,meteohub,2013-04-16 23:23:00,
2013-04-16 19:28:00,44.8,31.3,30.23,WSW,258,2.0,6.0,59,0.00,,,0.01,meteohub,2013-04-16 23:28:00,
2013-04-16 19:33:00,44.4,30.9,30.22,SW,214,1.0,7.0,59,0.00,,,0.01,meteohub,2013-04-16 23:33:00,
2013-04-16 19:38:00,44.2,31.3,30.23,West,261,5.0,7.0,60,0.00,,,0.01,meteohub,2013-04-16 23:38:00,
2013-04-16 19:44:00,43.9,30.9,30.23,SSW,203,1.0,7.0,60,0.00,,,0.01,meteohub,2013-04-16 23:44:00,
2013-04-16 19:49:00,43.7,31.1,30.23,NW,309,2.0,7.0,61,0.00,,,0.01,meteohub,2013-04-16 23:49:00,
2013-04-16 19:54:00,43.5,30.9,30.23,West,264,3.0,8.0,61,0.00,,,0.01,meteohub,2013-04-16 23:54:00,
2013-04-16 19:59:00,43.2,31.1,30.24,West,269,4.0,8.0,62,0.00,,,0.01,meteohub,2013-04-16 23:59:00,
2013-04-16 20:04:00,43.0,31.3,30.24,WNW,302,2.0,7.0,63,0.00,,,0.01,meteohub,2013-04-17 00:04:00,
2013-04-16 20:09:00,42.6,31.3,30.24,WSW,257,1.0,7.0,64,0.00,,,0.00,meteohub,2013-04-17 00:09:00,
2013-04-16 20:14:00,42.3,31.3,30.25,NW,308,0.0,6.0,65,0.00,,,0.00,meteohub,2013-04-17 00:14:00,
2013-04-16 20:19:00,41.9,31.5,30.25,WNW,283,1.0,5.0,66,0.00,,,0.00,meteohub,2013-04-17 00:19:00,
2013-04-16 20:24:00,41.5,31.5,30.25,West,273,1.0,4.0,67,0.00,,,0.00,meteohub,2013-04-17 00:24:00,
2013-04-16 20:29:00,41.2,31.1,30.25,WNW,285,1.0,3.0,67,0.00,,,0.00,meteohub,2013-04-17 00:29:00,
2013-04-16 20:34:00,41.0,31.3,30.25,West,268,2.0,3.0,68,0.00,,,0.00,meteohub,2013-04-17 00:34:00,
2013-04-16 20:39:00,40.6,31.3,30.25,WNW,283,2.0,3.0,69,0.00,,,0.00,meteohub,2013-04-17 00:39:00,
2013-04-16 20:44:00,40.5,31.5,30.25,West,259,1.0,2.0,70,0.00,,,0.00,meteohub,2013-04-17 00:44:00,
2013-04-16 20:49:00,40.5,31.5,30.26,West,268,0.0,2.0,70,0.00,,,0.00,meteohub,2013-04-17 00:49:00,
2013-04-16 20:54:00,40.1,31.1,30.26,West,271,0.0,2.0,70,0.00,,,0.00,meteohub,2013-04-17 00:54:00,
2013-04-16 20:59:00,39.9,31.3,30.26,West,270,0.0,2.0,71,0.00,,,0.00,meteohub,2013-04-17 00:59:00,
2013-04-16 21:04:00,39.6,31.3,30.27,West,273,1.0,1.0,72,0.00,,,0.00,meteohub,2013-04-17 01:04:00,
2013-04-16 21:09:00,39.0,31.1,30.27,WNW,285,1.0,2.0,73,0.00,,,0.00,meteohub,2013-04-17 01:09:00,
2013-04-16 21:14:00,38.8,31.3,30.27,WNW,285,2.0,2.0,74,0.00,,,0.00,meteohub,2013-04-17 01:14:00,
2013-04-16 21:19:00,38.8,31.3,30.27,West,280,0.0,2.0,74,0.00,,,0.00,meteohub,2013-04-17 01:19:00,
2013-04-16 21:24:00,38.8,31.3,30.28,West,273,0.0,2.0,74,0.00,,,0.00,meteohub,2013-04-17 01:24:00,
2013-04-16 21:29:00,38.7,31.1,30.28,WSW,243,0.0,2.0,74,0.00,,,0.00,meteohub,2013-04-17 01:29:00,
2013-04-16 21:34:00,38.7,31.5,30.28,West,265,1.0,2.0,75,0.00,,,0.00,meteohub,2013-04-17 01:34:00,
2013-04-16 21:40:00,38.7,31.5,30.28,West,268,0.0,2.0,75,0.00,,,0.00,meteohub,2013-04-17 01:40:00,
2013-04-16 21:45:00,38.7,31.5,30.29,West,276,1.0,3.0,75,0.00,,,0.00,meteohub,2013-04-17 01:45:00,
2013-04-16 21:50:00,38.8,31.6,30.29,WNW,290,1.0,3.0,75,0.00,,,0.00,meteohub,2013-04-17 01:50:00,
2013-04-16 21:55:00,38.8,31.3,30.29,West,262,2.0,3.0,74,0.00,,,0.00,meteohub,2013-04-17 01:55:00,
2013-04-16 22:00:00,39.0,31.5,30.30,WSW,240,0.0,3.0,74,0.00,,,0.00,meteohub,2013-04-17 02:00:00,
2013-04-16 22:05:00,39.0,31.5,30.30,WSW,243,1.0,3.0,74,0.00,,,0.00,meteohub,2013-04-17 02:05:00,
2013-04-16 22:10:00,38.8,31.3,30.30,West,265,0.0,3.0,74,0.00,,,0.00,meteohub,2013-04-17 02:10:00,
2013-04-16 22:15:00,38.5,31.3,30.30,West,279,1.0,3.0,75,0.00,,,0.00,meteohub,2013-04-17 02:15:00,
2013-04-16 22:20:00,38.1,31.3,30.31,WNW,287,1.0,2.0,76,0.00,,,0.00,meteohub,2013-04-17 02:20:00,
2013-04-16 22:25:00,37.9,31.1,30.31,West,268,1.0,2.0,76,0.00,,,0.00,meteohub,2013-04-17 02:25:00,
2013-04-16 22:30:00,37.8,31.3,30.31,West,270,0.0,2.0,77,0.00,,,0.00,meteohub,2013-04-17 02:30:00,
2013-04-16 22:35:00,37.2,30.9,30.31,West,270,0.0,2.0,78,0.00,,,0.00,meteohub,2013-04-17 02:35:00,
2013-04-16 22:40:00,37.0,31.1,30.31,West,270,0.0,1.0,79,0.00,,,0.00,meteohub,2013-04-17 02:40:00,
2013-04-16 22:45:00,36.7,31.1,30.32,West,276,0.0,1.0,80,0.00,,,0.00,meteohub,2013-04-17 02:45:00,
2013-04-16 22:50:00,36.0,30.7,30.32,West,276,0.0,1.0,81,0.00,,,0.00,meteohub,2013-04-17 02:50:00,
2013-04-16 22:55:00,35.2,30.4,30.32,West,276,0.0,1.0,82,0.00,,,0.00,meteohub,2013-04-17 02:55:00,
2013-04-16 23:00:00,34.5,30.2,30.32,West,276,0.0,0.0,84,0.00,,,0.00,meteohub,2013-04-17 03:00:00,
2013-04-16 23:05:00,34.0,30.0,30.32,West,276,0.0,0.0,85,0.00,,,0.00,meteohub,2013-04-17 03:05:00,
2013-04-16 23:10:00,33.4,29.7,30.32,West,276,0.0,0.0,86,0.00,,,0.00,meteohub,2013-04-17 03:10:00,
2013-04-16 23:15:00,33.3,29.8,30.32,West,276,0.0,0.0,87,0.00,,,0.00,meteohub,2013-04-17 03:15:00,
2013-04-16 23:20:00,33.1,29.7,30.32,West,276,0.0,0.0,87,0.00,,,0.00,meteohub,2013-04-17 03:20:00,
2013-04-16 23:25:00,33.1,29.7,30.32,West,276,0.0,0.0,87,0.00,,,0.00,meteohub,2013-04-17 03:25:00,
2013-04-16 23:30:00,32.9,29.7,30.32,West,276,0.0,0.0,88,0.00,,,0.00,meteohub,2013-04-17 03:30:00,
2013-04-16 23:35:00,32.5,29.7,30.33,West,276,0.0,0.0,89,0.00,,,0.00,meteohub,2013-04-17 03:35:00,
2013-04-16 23:40:00,32.4,29.5,30.33,WNW,283,0.0,0.0,89,0.00,,,0.00,meteohub,2013-04-17 03:40:00,
2013-04-16 23:45:00,32.5,29.3,30.32,WNW,283,1.0,1.0,88,0.00,,,0.00,meteohub,2013-04-17 03:45:00,
2013-04-16 23:50:00,32.7,29.5,30.33,West,276,2.0,2.0,88,0.00,,,0.00,meteohub,2013-04-17 03:50:00,
2013-04-16 23:55:00,33.6,29.8,30.33,West,261,2.0,3.0,86,0.00,,,0.00,meteohub,2013-04-17 03:55:00,